• Join FlightAware (Why Join?)
  • Login
  • US Flag 
08:53PM EST


 

Airport Tracker/Info


-or-


 

Live Flight TrackerFlight Track Log ✈ RPA3452 ✈ 27-Apr-2014 ✈ KALB - KPHL

Flight Track Log - Related Links

Times and Time Zones

All times are in EDT time to prevent confusion due to time zone crossing. See the RPA3452 flight status page for this flight to view local times or setup timezone preferences in your user account.

Time Position Orientation Groundspeed Altitude Reporting Facility
EDT Latitude Longitude Course Direction KTS MPH feet Rate Location/Type
07:06AM 42.7492 -73.8258 201° Southwest 148 170 1,700  Level Boston Center
07:06AM 42.7467 -73.8744 266° West 182 209 3,200 1,875 Climbing Boston Center
07:07AM 42.7475 -73.8906 274° West 174 200 3,700 2,800 Climbing Boston Center
07:08AM 42.7475 -73.9906 270° West 244 281 6,700 3,223 Climbing Boston Center
07:09AM 42.7469 -74.0878 270° West 254 292 10,200 2,656 Climbing Boston Center
07:10AM 42.3052 -74.0331 201° Southwest  Level Estimated
07:10AM 42.7414 -74.1958 266° West 291 335 12,100  Level Boston Center
07:11AM 42.2163 -74.0789 201° Southwest  Level Estimated
07:11AM 42.6783 -74.2908 228° Southwest 340 391 14,400  Level Boston Center
07:12AM 42.6103 -74.3833 225° Southwest 345 397 16,700 2,281 Climbing Boston Center
07:13AM 42.5347 -74.4836 224° Southwest 352 405 19,000 1,140 Climbing Boston Center
07:14AM 42.4644 -74.5781 225° Southwest 353 406 19,000  Level Boston Center
07:15AM 42.3897 -74.6792 225° Southwest 377 434 19,000  Level Boston Center
07:16AM 42.3186 -74.7717 224° Southwest 384 442 19,000  Level Boston Center
07:17AM 42.2442 -74.8717 225° Southwest 384 442 19,000  Level Boston Center
07:18AM 42.1656 -74.9692 223° Southwest 384 442 19,000  Level Boston Center
07:19AM 42.0656 -75.0511 211° Southwest 416 479 19,000  Level Boston Center
07:20AM 41.9669 -75.1308 211° Southwest 412 474 19,000  Level Boston Center
07:21AM 41.8706 -75.2097 211° Southwest 408 470 19,000 -149 Level Boston Center
07:22AM 41.7761 -75.2872 211° Southwest 402 463 18,700 -1,131 Descending Boston Center
07:23AM 41.6817 -75.3617 210° Southwest 395 455 16,700 -1,918 Descending Boston Center
07:24AM 41.5911 -75.4344 211° Southwest 384 442 14,800 -1,820 Descending Boston Center
07:25AM 41.5017 -75.5069 211° Southwest 380 437 13,000 -1,388 Descending Boston Center
07:26AM 41.4156 -75.5764 211° Southwest 368 423 12,000 -496 Descending Boston Center
07:27AM 41.3311 -75.6439 211° Southwest 361 415 12,000 -49 Level Boston Center
07:28AM 41.2147 -75.6856 195° South 375 432 11,900 -49 Descending Boston Center
07:29AM 41.1100 -75.6497 166° South 389 448 11,900  Level Boston Center
07:30AM 41.0047 -75.6144 166° South 389 448 11,900  Level Boston Center
07:31AM 40.9011 -75.5806 166° South 388 447 11,900 46 Level Boston Center
07:32AM 40.7922 -75.5458 166° South 388 447 12,000 47 Climbing New York Center
07:33AM 40.6894 -75.5111 166° South 388 447 12,000  Level New York Center
07:34AM 40.5844 -75.4767 166° South 388 447 12,000 -800 Level New York Center
07:35AM 40.4856 -75.4453 166° South 381 438 10,400 -1,450 Descending New York Center
07:36AM 40.4042 -75.3961 155° Southeast 339 390 9,100 -1,500 Descending New York Center
07:37AM 40.3336 -75.3344 146° Southeast 314 361 7,400 -1,550 Descending New York Center
07:38AM 40.2569 -75.2722 148° Southeast 308 354 6,000 -700 Descending New York Center
07:39AM 40.1922 -75.2189 148° Southeast 303 349 6,000  Level New York Center
07:40AM 40.1214 -75.1628 149° Southeast 303 349 6,000 -584 Level New York Center
07:41AM 40.0500 -75.1000 146° Southeast 295 339 4,900 -1,487 Descending Philadelphia TRACON
07:42AM 39.9833 -75.0500 150° Southeast 277 319 3,200 -1,300 Descending Philadelphia TRACON
07:43AM 39.9333 -75.0500 180° South 230 265 2,300 -600 Descending Philadelphia TRACON
07:44AM 39.9000 -75.1000 229° Southwest 155 178 2,000 -545 Descending Philadelphia TRACON
07:45AM 39.8833 -75.1500 247° West 133 153 1,200 -709 Descending Philadelphia TRACON
07:46AM 39.8833 -75.2000 270° West 117 135 500 -636 Descending Philadelphia TRACON